EDT,Max TemperatureF,Mean TemperatureF,Min TemperatureF,Max Dew PointF,MeanDew PointF,Min DewpointF,Max Humidity, Mean Humidity, Min Humidity, Max Sea Level PressureIn, Mean Sea Level PressureIn, Min Sea Level PressureIn, Max VisibilityMiles, Mean VisibilityMiles, Min VisibilityMiles, Max Wind SpeedMPH, Mean Wind SpeedMPH, Max Gust SpeedMPH,PrecipitationIn, CloudCover, Events, WindDirDegrees
2012-10-1,81,76,71,75,73,66,93,83,73,29.74,29.67,29.61,10,7,1,25,13,32,1.48,7,Rain,184
2012-10-2,78,72,65,66,64,63,93,78,62,30.03,29.87,29.71,10,10,8,14,5,20,0.00,4,,240
2012-10-3,80,71,62,68,64,60,97,80,62,30.17,30.11,30.04,10,10,6,9,2,21,0.00,0,,2
2012-10-4,80,73,65,71,68,63,100,87,74,30.25,30.20,30.16,10,7,0,10,3,20,0.00,5,Fog,9
2012-10-5,84,77,70,73,71,69,100,83,65,30.18,30.11,30.02,10,6,0,9,2,25,0.00,5,Fog,19
2012-10-6,88,78,68,72,69,64,100,73,46,30.05,30.00,29.92,10,6,0,12,2,22,0.00,4,Fog,334
2012-10-7,83,74,64,70,65,62,93,74,55,30.07,30.02,29.96,10,9,5,14,7,25,0.00,0,,335
2012-10-8,82,71,60,63,59,55,84,68,51,30.11,30.06,30.01,10,10,10,15,7,28,0.00,2,,338
2012-10-9,80,68,56,66,60,54,97,76,54,30.14,30.09,30.04,10,8,0,10,4,23,0.00,3,Fog,1
2012-10-10,84,72,59,65,60,54,100,67,34,30.19,30.14,30.09,10,7,0,10,2,24,0.00,0,,330
2012-10-11,84,72,59,65,59,37,97,70,43,30.27,30.21,30.16,10,10,7,12,2,28,0.00,0,,22
2012-10-12,86,72,57,66,61,55,97,70,42,30.29,30.23,30.17,10,9,6,10,1,29,0.00,0,,292
2012-10-13,86,76,65,69,64,61,93,71,48,30.28,30.22,30.17,10,10,8,10,4,20,0.00,1,,51
2012-10-14,85,75,64,69,65,61,97,76,55,30.19,30.13,30.05,10,9,4,12,5,26,0.00,1,,98
2012-10-15,87,74,61,72,64,58,100,76,51,30.05,29.96,29.87,10,7,1,15,2,20,0.00,3,,301
2012-10-16,78,66,53,57,50,43,89,59,29,30.01,29.95,29.90,10,10,10,16,6,30,0.00,0,,352
2012-10-17,79,69,59,61,56,52,97,70,42,29.96,29.90,29.82,10,10,10,14,3,30,0.00,3,,137
2012-10-18,75,67,59,67,63,57,100,87,74,29.91,29.85,29.80,10,7,1,20,4,105,0.92,6,Rain-Thunderstorm,352
2012-10-19,79,68,56,64,52,37,100,63,25,29.96,29.90,29.85,10,9,0,16,5,37,0.00,1,Fog,302
2012-10-20,78,63,48,56,49,43,93,62,31,30.02,29.98,29.93,10,10,10,13,2,29,0.00,0,,293
2012-10-21,79,65,50,57,51,47,93,65,37,30.15,30.10,30.03,10,10,10,16,3,31,0.00,0,,358
2012-10-22,82,68,54,60,54,50,93,65,36,30.20,30.13,30.08,10,10,10,22,3,16,0.00,0,,56
2012-10-23,82,69,56,63,58,54,93,68,42,30.16,30.10,30.06,10,10,10,10,5,20,0.00,1,,57
2012-10-24,84,72,60,63,60,57,97,70,43,30.14,30.07,30.00,10,10,7,12,4,16,0.00,1,,42
2012-10-25,86,74,62,65,62,59,93,68,43,30.05,30.00,29.94,10,10,8,12,5,22,0.00,2,,31
2012-10-26,84,73,62,65,62,59,93,69,44,29.99,29.93,29.85,10,10,7,18,5,32,0.00,0,,346
2012-10-27,74,64,54,61,56,49,93,75,57,29.90,29.86,29.80,10,9,5,22,11,32,0.00,3,,320
2012-10-28,67,58,48,49,46,42,89,67,45,29.99,29.90,29.84,10,10,10,25,13,36,0.00,5,,313
2012-10-29,64,54,43,40,34,28,76,52,27,30.05,29.99,29.91,10,10,10,23,13,28,0.00,0,,303
2012-10-30,66,54,41,38,31,25,71,48,24,30.02,29.98,29.92,10,10,10,25,11,35,0.00,0,,281
2012-10-31,73,57,41,49,42,38,89,59,29,30.07,30.02,29.97,10,10,10,18,4,29,0.00,0,,261